Location: Lango�lan
(48.1202°N, 3.2340°W)
Time: 07:19:30
(UTC+00:00)

BREEZE-M DEB (TANK) - Pass Details

Date: 23 October 2019
Orbit: 309 x 15441 km, 49.5° (Epoch: 17 November)

Event Time Altitude Azimuth Distance (km) Brightness Sun altitude
Exits shadow 03:38:37 26° 79° (E) 1,117 4.4 -31.2°
Drops below altitude 10° 03:39:47 10° 76° (ENE) 1,622 5.6 -31.0°
Sets 03:41:07 0° 75° (ENE) 2,268 6.6 -30.8°
